Location: Robert Brownlee Observatory
(34.2308°N, 117.2089°W)
Time: 12:14:43
(UTC-07:00)

Cosmos 1943 - Visible Passes

Search period start: 26 July 2014 00:00
Search period end: 05 August 2014 00:00
Orbit: 833 x 852 km, 71.0° (Epoch: 26 July)

Date Brightness Start Highest point End Pass type
(mag) Time Alt. Az. Time Alt. Az. Time Alt. Az.
26 Jul 4.6 01:29:32 10° N 01:33:53 33° NE 01:33:53 33° NE visible
26 Jul 5.0 03:13:51 10° NW 03:15:40 18° WNW 03:15:40 18° WNW visible
27 Jul 4.7 01:14:45 10° N 01:18:45 30° NE 01:18:45 30° NE visible
27 Jul 5.1 02:58:57 10° NW 03:00:32 17° NW 03:00:32 17° NW visible
28 Jul 4.9 00:59:59 10° N 01:03:42 28° NE 01:03:42 28° NE visible
28 Jul 5.2 02:44:02 10° NW 02:45:29 17° NW 02:45:29 17° NW visible
29 Jul 4.9 00:45:12 10° N 00:48:42 26° NE 00:48:42 26° NE visible
29 Jul 5.3 02:29:08 10° NW 02:30:29 17° NW 02:30:29 17° NW visible
30 Jul 5.0 00:30:26 10° N 00:33:46 25° NE 00:33:46 25° NE visible
30 Jul 5.3 02:14:15 10° NW 02:15:33 16° NW 02:15:33 16° NW visible
31 Jul 5.0 00:15:40 10° N 00:18:52 24° NE 00:18:52 24° NE visible
31 Jul 5.4 01:59:21 10° NW 02:00:40 17° NW 02:00:40 17° NW visible
01 Aug 5.1 00:00:54 10° N 00:04:01 23° NE 00:04:01 23° NE visible
01 Aug 5.4 01:44:28 10° NW 01:45:49 17° NW 01:45:49 17° NW visible
01 Aug 5.1 23:46:08 10° N 23:49:13 22° NE 23:49:13 22° NE visible
02 Aug 5.4 01:29:35 10° NW 01:31:01 18° NW 01:31:01 18° NW visible
02 Aug 5.1 23:31:23 10° N 23:34:27 21° NE 23:34:27 21° NE visible
03 Aug 5.4 01:14:43 10° NW 01:16:15 18° NW 01:16:15 18° NW visible
03 Aug 5.1 23:16:38 10° N 23:19:42 20° NE 23:19:42 20° NE visible
04 Aug 5.3 00:59:50 10° NW 01:01:31 19° NW 01:01:31 19° NW visible
04 Aug 5.1 23:01:53 10° N 23:05:00 20° NE 23:05:00 20° NE visible
